Location: Cheadle
(51.0146°N, 113.5417°W)
Time: 22:33:50
(UTC+00:00)

Tiangong - Pass Details

Date: 19 June 2023
Orbit: 374 x 385 km, 41.5° (Epoch: 22 September)

Event Time Altitude Azimuth Distance (km) Brightness Sun altitude
Rises 05:24:44 0° 243° (WSW) 2,232 1.8 -10.2°
Reaches altitude 10° 05:27:26 10° 218° (SW) 1,377 0.4 -10.4°
Maximum altitude 05:29:14 15° 182° (S) 1,139 -0.3 -10.5°
Enters shadow 05:29:23 15° 178° (S) 1,140 -0.3 -10.6°
